Hourly Weather Abdaevo

Today, 1 March, Monday

Time Temperature Precipitation Wind Pressure Humidity
00:00 -23°C° 0 mm 2 mps 744 mmHg 98%
01:00 -24°C° 0 mm 2 mps 745 mmHg 98%
02:00 -24°C° 0 mm 2 mps 745 mmHg 97%
03:00 -24°C° 0 mm 2 mps 746 mmHg 97%
04:00 -25°C° 0 mm 2 mps 746 mmHg 97%
05:00 -25°C° 0 mm 2 mps 746 mmHg 97%
06:00 -26°C° 0 mm 2 mps 747 mmHg 96%
07:00 -21°C° 0 mm 1 mps 747 mmHg 94%
08:00 -19°C° 0 mm 1 mps 747 mmHg 92%
09:00 -18°C° 0 mm 1 mps 748 mmHg 90%
10:00 -16°C° 0 mm 1 mps 748 mmHg 88%
11:00 -14°C° 0 mm 1 mps 748 mmHg 86%
12:00 -12°C° 0 mm 1 mps 748 mmHg 84%
13:00 -14°C° 0 mm 2 mps 747 mmHg 86%
14:00 -13°C° 0 mm 2 mps 747 mmHg 88%
15:00 -12°C° 0 mm 2 mps 747 mmHg 90%
16:00 -13°C° 0 mm 2 mps 746 mmHg 92%
17:00 -15°C° 0 mm 3 mps 745 mmHg 94%
18:00 -16°C° 0 mm 3 mps 745 mmHg 96%
19:00 -16°C° 0 mm 3 mps 744 mmHg 96%
20:00 -15°C° 0 mm 3 mps 744 mmHg 96%
21:00 -16°C° 0 mm 4 mps 743 mmHg 96%
22:00 -15°C° 0.2 mm 4 mps 742 mmHg 95%
23:00 -12°C° 0.2 mm 4 mps 741 mmHg 95%

Tomorrow, 2 March, Tuesday

Time Temperature Precipitation Wind Pressure Humidity
00:00 -12°C° 0.2 mm 5 mps 740 mmHg 94%
01:00 -12°C° 0.4 mm 5 mps 739 mmHg 94%
02:00 -11°C° 0.4 mm 5 mps 738 mmHg 94%
03:00 -10°C° 0.4 mm 5 mps 737 mmHg 94%
04:00 -8°C° 0.4 mm 5 mps 736 mmHg 95%
05:00 -7°C° 0.4 mm 5 mps 735 mmHg 95%
06:00 -6°C° 0.4 mm 5 mps 734 mmHg 95%
07:00 -5°C° 0.5 mm 5 mps 734 mmHg 96%
08:00 -4°C° 0.5 mm 5 mps 733 mmHg 97%
09:00 -2°C° 0.5 mm 4 mps 733 mmHg 98%
10:00 -2°C° 0.3 mm 4 mps 732 mmHg 98%
11:00 -2°C° 0.3 mm 4 mps 732 mmHg 98%
12:00 -2°C° 0.3 mm 4 mps 731 mmHg 98%
13:00 -2°C° 0.2 mm 4 mps 731 mmHg 98%
14:00 -2°C° 0.2 mm 4 mps 731 mmHg 97%
15:00 -2°C° 0.2 mm 4 mps 731 mmHg 97%
16:00 -3°C° 0.1 mm 4 mps 731 mmHg 95%
17:00 -4°C° 0.1 mm 3 mps 731 mmHg 93%
18:00 -5°C° 0.1 mm 3 mps 732 mmHg 91%
19:00 -5°C° 0 mm 3 mps 732 mmHg 92%
20:00 -5°C° 0 mm 3 mps 732 mmHg 93%
21:00 -5°C° 0 mm 3 mps 733 mmHg 94%
22:00 -6°C° 0 mm 3 mps 733 mmHg 95%
23:00 -7°C° 0 mm 3 mps 732 mmHg 95%

Day after tomorrow, 3 March, Wednesday

Time Temperature Precipitation Wind Pressure Humidity
00:00 -8°C° 0 mm 3 mps 732 mmHg 96%
01:00 -8°C° 0 mm 3 mps 733 mmHg 96%
02:00 -8°C° 0 mm 3 mps 733 mmHg 96%
03:00 -8°C° 0 mm 3 mps 733 mmHg 97%
04:00 -9°C° 0 mm 3 mps 733 mmHg 96%
05:00 -9°C° 0 mm 3 mps 733 mmHg 96%
06:00 -9°C° 0 mm 3 mps 733 mmHg 96%
07:00 -9°C° 0 mm 3 mps 734 mmHg 95%
08:00 -10°C° 0 mm 4 mps 734 mmHg 93%
09:00 -10°C° 0 mm 4 mps 735 mmHg 92%
10:00 -9°C° 0 mm 4 mps 735 mmHg 91%
11:00 -10°C° 0 mm 5 mps 735 mmHg 90%
12:00 -8°C° 0 mm 5 mps 735 mmHg 88%
13:00 -8°C° 0 mm 5 mps 736 mmHg 88%
14:00 -8°C° 0 mm 5 mps 736 mmHg 88%
15:00 -8°C° 0 mm 5 mps 736 mmHg 88%
16:00 -9°C° 0 mm 4 mps 737 mmHg 90%
17:00 -9°C° 0 mm 4 mps 737 mmHg 91%
18:00 -9°C° 0 mm 3 mps 737 mmHg 92%
19:00 -9°C° 0 mm 3 mps 737 mmHg 92%
20:00 -9°C° 0 mm 3 mps 738 mmHg 92%
21:00 -9°C° 0 mm 3 mps 738 mmHg 91%
22:00 -10°C° 0 mm 3 mps 738 mmHg 93%
23:00 -12°C° 0 mm 3 mps 737 mmHg 94%

4 March, Thursday

Time Temperature Precipitation Wind Pressure Humidity
00:00 -13°C° 0 mm 3 mps 737 mmHg 95%
01:00 -13°C° 0.1 mm 3 mps 736 mmHg 95%
02:00 -13°C° 0.1 mm 3 mps 736 mmHg 95%
03:00 -13°C° 0.1 mm 3 mps 736 mmHg 95%
04:00 -12°C° 0.1 mm 3 mps 735 mmHg 95%
05:00 -11°C° 0.1 mm 4 mps 735 mmHg 94%
06:00 -11°C° 0.1 mm 4 mps 735 mmHg 94%
07:00 -10°C° 0.1 mm 4 mps 734 mmHg 94%
08:00 -10°C° 0.1 mm 5 mps 733 mmHg 94%
09:00 -8°C° 0.1 mm 5 mps 732 mmHg 94%
10:00 -8°C° 0.3 mm 6 mps 732 mmHg 94%
11:00 -6°C° 0.3 mm 6 mps 731 mmHg 94%
12:00 -6°C° 0.3 mm 7 mps 730 mmHg 94%
13:00 -6°C° 0.5 mm 7 mps 729 mmHg 94%
14:00 -4°C° 0.5 mm 7 mps 729 mmHg 95%
15:00 -4°C° 0.5 mm 7 mps 728 mmHg 95%
16:00 -4°C° 0.4 mm 7 mps 728 mmHg 94%
17:00 -4°C° 0.4 mm 7 mps 727 mmHg 94%
18:00 -4°C° 0.4 mm 7 mps 727 mmHg 93%
19:00 -4°C° 0.2 mm 7 mps 727 mmHg 93%
20:00 -4°C° 0.2 mm 7 mps 727 mmHg 93%
21:00 -4°C° 0.2 mm 7 mps 727 mmHg 93%
22:00 -7°C° 0.1 mm 7 mps 727 mmHg 91%
23:00 -8°C° 0.1 mm 6 mps 728 mmHg 89%

5 March, Friday

Time Temperature Precipitation Wind Pressure Humidity
00:00 -9°C° 0.1 mm 6 mps 728 mmHg 87%
01:00 -10°C° 0 mm 5 mps 729 mmHg 88%
02:00 -11°C° 0 mm 5 mps 729 mmHg 89%
03:00 -12°C° 0 mm 5 mps 730 mmHg 90%
04:00 -13°C° 0 mm 5 mps 731 mmHg 91%
05:00 -14°C° 0 mm 4 mps 732 mmHg 92%
06:00 -14°C° 0 mm 4 mps 733 mmHg 93%
07:00 -14°C° 0 mm 4 mps 733 mmHg 93%
08:00 -14°C° 0 mm 4 mps 734 mmHg 93%
09:00 -14°C° 0 mm 4 mps 735 mmHg 92%
10:00 -14°C° 0 mm 4 mps 736 mmHg 91%
11:00 -12°C° 0 mm 4 mps 736 mmHg 90%
12:00 -11°C° 0 mm 4 mps 737 mmHg 88%
13:00 -11°C° 0 mm 4 mps 737 mmHg 87%
14:00 -11°C° 0 mm 4 mps 738 mmHg 86%
15:00 -11°C° 0 mm 4 mps 739 mmHg 85%
16:00 -12°C° 0 mm 3 mps 739 mmHg 88%
17:00 -13°C° 0 mm 2 mps 739 mmHg 90%
18:00 -14°C° 0 mm 2 mps 740 mmHg 93%
19:00 -15°C° 0 mm 2 mps 740 mmHg 94%
20:00 -13°C° 0 mm 1 mps 741 mmHg 95%
21:00 -14°C° 0 mm 1 mps 741 mmHg 96%
22:00 -15°C° 0 mm 1 mps 742 mmHg 97%
23:00 -15°C° 0 mm 1 mps 742 mmHg 97%

6 March, Saturday

Time Temperature Precipitation Wind Pressure Humidity
00:00 -16°C° 0 mm 1 mps 742 mmHg 98%
01:00 -16°C° 0 mm 1 mps 742 mmHg 98%
02:00 -17°C° 0 mm 1 mps 742 mmHg 99%
03:00 -17°C° 0 mm 0 mps 742 mmHg 99%
04:00 -17°C° 0 mm 0 mps 743 mmHg 99%
05:00 -18°C° 0 mm 0 mps 743 mmHg 99%
06:00 -18°C° 0 mm 0 mps 743 mmHg 99%
07:00 -16°C° 0 mm 0 mps 743 mmHg 97%
08:00 -14°C° 0 mm 0 mps 743 mmHg 95%
09:00 -12°C° 0 mm 0 mps 743 mmHg 93%
10:00 -11°C° 0 mm 0 mps 743 mmHg 92%
11:00 -10°C° 0 mm 1 mps 743 mmHg 90%
12:00 -9°C° 0 mm 1 mps 743 mmHg 88%
13:00 -9°C° 0 mm 1 mps 742 mmHg 88%
14:00 -9°C° 0 mm 1 mps 742 mmHg 88%
15:00 -8°C° 0 mm 1 mps 741 mmHg 89%
16:00 -10°C° 0 mm 1 mps 741 mmHg 91%
17:00 -11°C° 0 mm 1 mps 741 mmHg 93%
18:00 -12°C° 0 mm 1 mps 741 mmHg 95%
19:00 -13°C° 0 mm 1 mps 741 mmHg 95%
20:00 -16°C° 0 mm 2 mps 741 mmHg 94%
21:00 -16°C° 0 mm 2 mps 741 mmHg 94%
22:00 -17°C° 0 mm 2 mps 741 mmHg 94%
23:00 -18°C° 0 mm 2 mps 741 mmHg 95%
Show more

We Need Your Consent

Meteoprog and our Service Providers may store and access personal data such as cookies, device identifiers or other similar technologies on your device and process such data to personalise content and ads, as well as provide social media features and to analyse the traffic.

  • Store and/or access information on your device

    Cookies, device identifiers or other information can be stored or accessed on your device for the purposes indicated above.

  • Personalised ads and content, ad and content measurement, audience insights, and products development

    Ads and content can be personalised based on a profile. More data can be added to better personalise ads and content. Ad and content performance can be measured. Insights about the audience who saw the ads and content can be derived. Such data can be used to develop or improve user’s experience, systems and software.

By clicking ‘I Agree’ you will allow the use of indicated cookies, device identifiers, web beacons or other similar technologies. Your settings can be changed in the browser on your device.

For certain purposes, legitimate interests may be relied on, rather than consent. You can read more about this in our Privacy and Cookie Policy.